Back to catalog

STARLINK-32898

AliveCommunicationsVLEO
NORAD 62998·PAYLOAD·🇺🇸 United States

Launched Feb 11, 2025 from Cape Canaveral Space Force Station

Loading…

Next Passes (next 24 hours)

TLE

FreshSource: CelesTrak SupGP

Epoch: Sep 14, 2026, 22:47 UTC

1 62998C 25031T   26257.94979167 -.00022880  00000+0 -82846-3 0  2578
2 62998  43.0002 154.7312 0001610 259.1688 236.0353 15.27599545    10

Track STARLINK-32898 in real time with AllMySat

Download on the App Store